Vorticity
13 13 9 3 -5 -7 5 11 7 13 23 20 18 17 10 7 6 1 2 4 4 5 6 6 5 6 7 8 9 10 10 10 10 8 8 7 6 7 8 9 9 9 9 8 7 7 7 6 5 5 5 6 6 6 6 6 6 6 6 6 7 7 6 6 5 3 3 4 4 5 5 6 5 5 5 6 6 6 6 5 4 5 5 5 5
10 10 8 5 6 7 7 10 13 14 15 13 9 1 -6 -0 7 6 2 2 5 5 5 5 4 2 3 3 4 6 8 10 11 9 9 8 7 6 5 6 7 7 8 8 8 8 8 9 9 8 7 6 6 6 6 7 6 6 6 6 6 6 6 7 7 6 4 3 4 4 5 6 5 4 4 4 5 6 6 6 5 5 6 6 6
6 7 8 9 10 6 5 12 18 17 14 11 5 -4 -7 0 8 10 7 2 2 4 3 4 3 2 2 0 -0 4 7 8 10 10 8 8 8 7 5 4 4 5 6 6 7 8 8 8 9 10 10 10 9 8 7 7 7 7 7 7 6 6 5 5 6 7 7 6 4 3 3 4 4 5 4 3 4 4 4 5 5 5 6 6 7
6 5 4 6 7 7 8 8 6 7 10 8 3 1 12 22 14 6 13 13 4 3 4 2 -1 2 9 9 5 7 9 7 6 6 6 7 6 6 7 6 4 3 4 4 5 6 7 8 8 9 10 10 11 11 10 9 9 9 8 9 9 8 8 7 7 7 8 9 9 8 7 7 6 6 7 7 7 6 6 6 6 6 5 5 5
7 4 3 8 11 10 12 9 4 4 3 2 3 0 10 25 13 0 14 18 6 4 8 7 2 3 10 14 11 10 11 11 9 7 8 9 6 4 5 5 3 2 3 5 6 6 6 7 8 8 8 8 8 8 9 8 8 7 7 7 7 8 9 10 10 9 9 9 10 11 11 11 11 10 8 8 9 9 9 10 10 10 9 9 9
7 9 7 7 8 6 6 6 4 5 3 3 7 5 3 7 6 7 11 9 6 8 9 11 12 8 5 6 12 18 15 9 8 8 10 12 10 9 10 9 8 6 7 8 7 7 8 7 7 6 5 5 5 5 5 5 5 5 4 4 4 5 6 6 6 7 6 5 4 5 6 7 9 10 9 8 8 8 8 8 9 10 11 11 11
5 8 4 1 5 7 6 7 7 8 7 3 3 8 7 -0 2 9 6 2 11 14 6 5 7 8 5 1 10 25 22 9 5 7 8 6 4 6 9 12 15 14 13 13 13 12 11 9 8 7 6 5 4 4 4 4 4 4 3 3 4 4 5 5 6 6 5 3 2 1 2 2 2 4 5 5 5 5 5 5 6 7 7 7 8
6 8 6 7 10 10 8 9 8 6 7 6 4 7 9 3 -0 4 3 2 8 9 4 2 -1 -0 3 0 1 9 8 2 4 8 7 4 2 3 3 4 10 11 8 8 11 13 12 9 9 10 11 10 7 6 6 6 6 6 5 5 4 3 3 2 3 4 5 6 6 5 5 5 5 4 3 3 4 4 3 4 5 5 5 5 6
8 8 7 7 6 8 11 11 9 7 6 6 4 3 5 4 2 4 5 3 2 3 4 4 1 0 2 3 3 3 -1 -4 -4 -2 0 2 6 10 8 0 -4 -4 -2 -1 1 4 6 4 3 2 4 6 6 5 4 3 3 4 5 6 6 5 4 4 3 3 4 5 6 7 6 3 -0 -3 -3 -1 1 1 1 -0 0 2 2 2 3
10 9 6 5 6 9 12 12 12 11 8 6 6 4 3 3 3 3 3 3 2 2 2 2 4 4 2 2 4 4 5 3 2 2 3 3 4 8 7 -3 -13 -9 2 5 3 3 4 0 -3 -3 -1 -0 -1 -2 -2 -2 -0 2 4 4 4 4 4 5 6 6 7 8 8 8 7 4 0 -1 1 6 8 9 8 5 4 3 2 2 2
8 5 3 5 8 8 7 9 12 13 13 13 11 9 7 6 6 5 5 5 5 4 4 4 4 5 5 5 4 4 5 6 6 7 6 5 5 5 5 2 -2 1 7 7 2 -1 -2 -2 -1 1 1 -1 -3 -3 -3 -1 1 3 5 3 2 3 3 3 3 3 3 4 5 5 6 6 6 6 6 6 7 8 7 6 5 6 5 4 4
4 1 2 5 7 7 7 7 6 6 10 15 16 18 16 14 13 13 12 11 10 10 10 10 9 9 8 7 7 8 9 8 6 5 5 6 7 7 7 6 6 6 6 7 6 2 0 2 4 5 3 1 1 2 3 5 6 7 7 4 4 5 5 4 4 3 3 1 0 -0 -1 -1 -1 -0 -1 -3 -3 -2 -2 -2 -2 -2 -1 -1 -1
1 1 3 6 7 7 7 6 4 4 6 7 7 6 7 8 10 11 11 11 11 11 11 12 13 14 12 11 12 12 12 9 7 7 6 6 6 6 7 8 9 9 7 8 10 8 6 5 4 3 1 0 1 2 5 9 8 7 6 6 6 7 7 6 6 5 6 7 6 6 6 5 5 5 5 5 5 5 5 6 6 5 5 6 6
3 3 4 7 7 5 6 6 6 7 7 6 4 2 3 5 7 9 10 10 10 10 10 10 12 13 13 13 12 11 11 9 9 10 10 9 9 8 8 9 11 11 10 10 11 11 10 9 7 6 5 6 7 9 12 12 9 9 10 9 9 9 8 9 9 9 9 8 8 7 8 9 9 9 10 10 10 10 10 9 9 9 10 10 11
4 4 4 6 5 4 5 5 5 7 8 9 9 8 4 1 5 9 8 7 6 5 5 5 6 8 10 11 11 11 11 11 11 12 12 12 13 12 12 13 12 11 11 12 12 11 11 11 11 12 12 15 16 16 15 12 10 11 11 10 10 10 9 9 10 10 10 10 9 9 8 8 8 8 9 10 10 11 10 10 10 10 10 9 10
4 4 5 6 6 5 5 5 7 8 8 8 9 6 -1 -2 6 10 6 3 4 4 4 6 7 7 7 8 9 9 9 10 11 10 10 11 12 12 13 12 11 12 12 12 12 12 13 13 13 13 13 12 12 10 8 6 5 5 4 5 7 9 10 11 10 10 10 11 12 13 12 13 12 11 11 11 11 11 11 11 11 10 10 10 11
5 8 8 9 8 5 4 5 7 7 7 8 6 1 -2 2 11 12 6 5 8 9 11 13 12 11 9 7 6 6 6 7 7 8 9 10 11 12 12 12 11 11 11 11 12 12 12 11 9 8 7 6 5 5 5 5 4 4 4 6 9 12 13 12 11 11 12 11 12 12 12 12 12 12 12 12 12 11 11 11 11 10 10 11 12
12 12 12 11 9 5 4 5 6 7 7 6 4 3 6 12 14 11 8 10 12 12 13 13 12 11 11 10 9 8 8 7 7 7 7 8 9 10 11 11 12 12 12 13 13 12 10 9 8 7 7 6 6 7 7 6 5 6 9 11 13 13 12 10 10 11 10 10 10 10 9 10 10 10 11 10 10 10 10 10 10 9 10 10 10
10 8 7 7 6 6 7 9 9 8 7 5 4 7 11 13 11 9 9 11 11 11 11 11 11 10 9 10 10 10 11 11 10 9 8 8 8 8 9 10 10 10 11 12 12 12 11 10 10 10 10 9 9 7 6 6 8 12 14 14 13 11 10 9 10 9 9 9 9 10 10 10 10 10 10 11 11 11 11 11 11 11 11 11 10
-4 1 4 6 8 9 10 11 11 10 10 10 11 12 13 13 12 11 11 10 9 11 12 11 12 12 11 12 12 12 13 14 14 14 14 13 12 11 10 11 10 10 11 11 11 12 11 11 11 11 10 10 9 9 10 12 14 14 13 11 10 10 10 9 9 8 9 9 9 10 11 11 11 12 11 11 12 12 12 12 12 12 12 12 12
-1 6 9 10 11 11 12 12 13 14 15 15 15 15 14 16 16 14 13 12 11 12 12 11 12 13 13 13 13 13 13 12 13 15 15 16 17 17 16 15 13 13 12 13 13 12 11 11 10 10 10 10 11 12 14 13 12 11 11 10 10 10 9 9 10 10 10 10 11 11 11 11 12 12 12 12 12 12 12 13 13 14 14 14 14
13 12 12 12 11 11 13 14 13 13 12 11 12 13 12 13 14 12 12 13 12 12 12 12 11 11 11 11 11 11 11 11 11 11 12 13 14 16 18 19 18 17 15 13 13 12 11 10 10 11 11 11 12 12 11 11 10 10 9 9 9 10 10 11 11 12 12 13 13 13 12 13 13 12 12 12 12 11 11 11 11 12 12 12 12
12 10 9 9 9 10 11 11 11 10 9 10 11 11 10 10 11 11 12 12 12 12 11 11 10 10 9 9 9 9 9 10 9 9 9 10 11 12 13 14 15 16 16 14 14 13 12 12 12 12 11 10 10 10 9 9 9 9 9 10 11 11 12 12 13 14 14 14 14 13 13 12 11 11 11 12 12 13 13 13 14 14 15 15 14
11 12 12 11 10 10 9 9 10 10 11 12 10 8 8 10 11 11 11 12 11 10 10 10 10 10 9 9 9 9 9 8 8 9 9 9 10 9 9 10 11 11 12 13 15 14 13 12 11 11 11 11 10 10 10 11 11 12 12 13 13 14 14 15 15 14 14 14 14 14 14 15 16 17 18 18 18 17 16 16 15 14 14 14 14
12 12 14 15 13 11 10 10 11 11 12 11 8 8 9 10 9 9 10 12 13 12 12 12 11 11 11 11 10 9 9 9 9 9 10 10 10 9 8 8 9 10 11 13 14 15 15 14 14 14 14 13 14 14 15 15 15 16 16 16 16 16 14 13 13 14 16 18 18 19 20 20 20 18 15 14 12 11 10 9 8 8 8 8 8
13 11 12 13 12 11 10 10 11 11 11 10 9 10 11 10 10 11 12 14 13 13 12 12 11 11 11 11 11 11 11 10 10 9 10 11 11 10 10 10 11 11 11 11 12 13 15 16 17 17 17 18 18 18 18 18 17 16 17 16 14 13 14 17 19 21 22 21 20 18 15 11 8 6 6 5 5 5 5 5 5 5 4 4 4
14 13 12 10 10 10 9 9 9 9 10 10 10 11 11 12 14 14 13 13 13 12 11 11 11 11 10 11 12 12 11 11 11 11 11 12 13 13 13 13 13 11 10 11 11 12 13 14 15 16 17 18 17 16 15 16 15 14 14 14 17 22 25 25 23 19 15 12 9 6 3 2 3 5 6 7 7 9 10 10 10 11 12 12 13
15 16 14 12 13 12 11 10 9 9 10 11 11 11 12 13 15 15 13 13 13 11 11 11 10 11 11 12 13 13 12 12 13 13 14 15 15 15 14 14 13 12 11 11 10 10 10 11 12 13 13 13 13 13 13 13 15 19 23 27 30 28 22 15 11 8 5 4 4 2 1 3 5 9 12 14 16 19 22 22 23 24 25 25 25
12 13 13 13 14 14 13 13 12 12 12 13 13 13 13 13 13 14 14 14 14 12 11 11 11 10 11 12 13 12 13 13 14 15 15 13 12 12 12 12 12 11 10 9 8 8 8 8 9 10 10 10 10 12 15 20 25 30 31 27 20 12 7 5 4 3 3 4 3 2 2 5 10 14 18 20 21 22 23 23 25 26 27 28 29
12 12 12 12 13 13 13 13 13 13 13 13 13 13 13 12 13 12 13 14 14 13 12 11 11 11 11 12 12 12 11 12 13 12 11 10 10 10 10 10 9 9 8 7 7 7 7 7 8 9 9 12 15 20 25 30 30 24 17 9 4 3 3 4 3 3 5 4 2 2 6 11 16 19 21 22 23 24 26 28 30 32 32 33 34
13 12 11 11 11 11 12 12 13 12 12 13 13 13 14 14 14 14 15 16 15 15 14 13 12 12 12 11 11 11 11 11 11 11 10 11 11 11 11 11 10 8 8 8 9 10 11 11 12 14 16 19 24 27 29 25 17 8 3 2 4 5 4 4 5 6 4 2 3 7 13 19 24 27 30 31 32 32 32 32 30 29 28 27 26
13 13 12 12 11 11 11 12 12 12 13 14 15 14 15 16 16 16 17 17 16 16 15 14 14 14 14 13 12 12 11 11 12 12 12 12 12 12 11 10 9 10 12 14 14 14 15 16 17 20 22 24 26 25 20 11 4 1 1 3 4 5 6 7 7 5 3 4 9 16 23 30 35 36 34 31 28 27 26 23 20 19 19 19 17
11 11 10 10 10 10 10 11 11 11 12 14 15 15 16 16 16 15 13 13 14 15 15 16 15 14 14 15 15 14 14 13 12 12 12 12 12 11 10 10 13 16 17 18 17 17 18 20 21 21 21 23 22 16 8 3 1 2 3 3 4 6 7 7 5 3 5 11 19 29 37 40 36 31 26 23 23 23 23 21 19 18 16 14 12
14 13 12 11 11 11 11 13 12 12 14 15 15 15 15 15 15 14 13 13 13 14 14 13 14 14 14 14 14 13 13 13 13 13 13 14 15 15 16 18 20 21 21 20 20 21 21 20 18 18 20 18 13 7 2 1 2 2 3 5 6 7 6 5 4 5 11 22 35 42 41 34 27 23 23 22 21 20 18 15 13 11 9 8 7
17 16 16 15 14 13 13 13 13 12 12 13 13 14 15 15 14 14 14 13 13 15 16 14 13 13 13 12 13 14 16 18 20 20 20 22 23 23 23 24 24 24 23 23 21 19 18 17 17 18 17 12 6 2 1 2 2 3 4 6 6 6 6 5 4 9 23 38 44 39 28 22 22 22 19 15 11 9 8 8 8 9 10 11 12
19 18 17 16 15 15 15 14 14 15 15 16 16 16 17 17 15 15 15 14 12 13 15 16 14 14 15 17 21 25 26 27 27 27 27 27 26 25 25 27 27 25 22 19 16 14 15 16 16 15 11 6 3 1 1 1 3 5 7 7 6 5 5 4 8 21 37 43 36 24 19 19 18 13 7 6 7 10 13 17 19 20 19 19 18
17 17 17 16 15 15 16 17 18 18 18 20 20 18 17 16 15 15 17 16 14 14 17 20 20 18 19 24 29 30 27 25 25 25 25 24 23 23 25 24 20 16 13 12 12 15 16 15 13 10 6 4 2 0 1 3 4 5 6 6 6 5 4 6 17 33 41 36 26 20 17 13 8 8 11 15 18 20 20 19 16 15 14 15 14
17 19 19 18 18 18 19 20 20 19 20 21 21 20 19 17 16 19 22 23 24 25 26 28 27 25 26 32 32 22 13 12 16 20 21 19 17 16 14 10 7 6 8 12 14 15 13 11 10 8 4 2 1 1 1 3 4 4 5 6 6 6 5 10 26 39 36 25 19 15 10 8 13 19 22 20 16 12 9 7 7 10 13 15 14
17 20 23 25 26 25 22 21 23 24 25 25 23 23 25 28 30 33 34 34 35 36 34 32 30 26 25 25 17 4 -2 6 15 15 13 13 14 12 10 9 7 7 10 14 14 13 10 9 9 6 3 2 2 1 1 3 3 4 5 6 7 7 6 14 32 41 30 16 11 9 11 18 23 20 14 11 9 9 9 11 14 18 18 16 15
25 30 35 35 32 28 26 28 32 33 32 31 34 37 39 39 39 37 32 28 26 26 25 24 23 20 14 6 0 -2 5 15 17 9 3 7 14 15 12 11 10 10 12 13 12 10 10 9 7 4 3 3 3 1 1 3 3 4 6 7 7 6 6 16 35 41 25 9 10 16 20 22 17 8 7 12 15 16 17 17 17 19 17 14 15
33 32 32 27 22 21 21 21 24 28 30 30 30 27 22 17 13 12 10 8 7 8 9 10 11 9 2 -2 1 9 15 14 9 4 4 10 14 13 11 11 12 12 12 12 11 11 11 9 6 4 4 3 2 1 2 4 3 5 7 6 6 7 5 13 34 43 26 8 12 21 19 13 8 6 10 14 15 14 16 18 17 17 16 14 14
21 18 16 15 18 27 30 22 16 18 21 17 10 7 7 8 9 11 11 10 9 11 11 10 7 4 2 5 13 17 12 3 1 5 11 14 14 12 12 12 12 11 11 11 11 11 11 8 6 5 4 3 2 1 2 4 4 6 7 5 5 7 5 9 30 43 30 12 15 22 14 6 7 7 7 11 13 12 13 17 17 15 15 17 15
13 13 13 16 22 30 36 34 27 22 20 15 9 7 10 14 17 20 21 19 16 17 18 18 18 19 19 19 18 11 3 0 6 12 14 15 14 12 11 11 10 10 11 11 11 11 10 8 7 5 4 3 2 1 2 4 6 7 7 6 5 6 4 7 24 39 32 15 15 20 12 4 5 5 2 7 14 12 9 13 17 17 17 18 17
11 9 13 18 18 15 17 22 22 19 18 16 10 2 -2 0 5 11 14 13 11 11 13 15 16 16 14 10 6 3 4 9 14 16 14 13 12 10 8 8 9 9 10 10 10 10 9 8 7 6 4 3 3 2 2 5 7 7 7 6 4 5 5 5 17 36 36 21 15 17 11 1 1 3 2 5 13 14 10 6 8 15 20 17 15
9 14 20 21 16 11 10 12 13 14 15 14 10 5 3 5 8 10 12 12 11 11 11 10 9 9 11 12 12 12 15 18 17 14 12 11 9 7 6 7 8 9 10 10 10 9 9 8 7 6 4 4 4 3 2 5 8 8 7 6 4 5 5 3 10 29 40 31 19 14 9 2 -1 1 2 5 9 15 17 10 4 11 21 18 12
29 30 27 21 17 17 17 15 15 17 17 15 14 14 15 14 15 16 17 16 13 11 9 9 10 13 19 22 20 19 20 18 13 10 8 6 6 6 7 9 10 10 10 10 9 9 8 8 7 7 6 5 5 4 3 6 9 8 7 6 5 4 5 4 5 18 35 41 30 14 4 2 3 1 -0 3 6 10 18 19 11 10 20 21 13
28 25 24 23 21 20 19 17 15 14 13 12 13 16 18 18 19 20 19 15 13 12 13 15 17 20 22 23 21 19 17 12 7 5 5 5 7 8 9 10 11 10 9 9 9 8 8 8 7 7 7 6 5 5 5 7 9 9 7 6 5 3 4 5 5 8 22 39 44 28 6 -1 4 4 0 1 4 7 14 22 18 11 15 22 18
8 10 13 15 14 13 14 16 16 16 14 12 12 15 18 18 17 16 15 15 16 18 20 22 22 22 21 18 14 11 8 6 5 6 7 7 8 9 9 9 10 9 8 8 8 7 7 8 8 7 7 7 6 6 6 7 9 9 7 6 6 4 3 5 6 6 9 23 42 44 24 4 2 5 3 0 1 3 8 18 20 12 7 13 19
2 2 5 8 10 11 10 10 11 14 16 15 15 15 15 14 13 14 16 18 19 19 18 17 16 14 12 9 7 6 6 6 7 7 7 7 8 8 8 8 8 7 7 7 7 7 7 8 8 8 8 7 7 7 8 8 9 10 8 7 6 5 4 4 5 6 5 9 25 43 41 21 6 4 4 2 -0 -1 3 11 16 12 5 6 14
1 3 4 5 6 9 10 9 9 10 11 14 17 18 16 14 12 12 13 13 13 13 11 9 8 7 7 6 6 6 6 6 6 6 7 8 8 8 8 7 7 7 7 7 7 7 7 8 8 8 9 8 7 7 8 9 9 9 9 7 5 4 5 5 3 4 6 6 11 28 43 38 21 7 4 4 2 -1 -0 5 12 13 11 9 10
2 5 6 5 5 6 9 10 11 10 8 9 12 15 17 18 16 13 10 8 7 7 6 6 6 6 5 5 6 5 5 5 6 6 6 7 7 8 8 8 7 7 6 6 6 7 7 8 9 9 8 8 8 8 9 10 10 9 8 8 6 4 5 6 4 3 5 5 5 13 31 42 36 20 8 6 6 2 -2 0 6 10 12 13 11
Height
5728 5728 5728 5729 5729 5729 5729 5730 5730 5730 5731 5732 5733 5733 5734 5734 5734 5734 5733 5733 5733 5732 5732 5733 5733 5734 5734 5735 5735 5736 5736 5737 5737 5737 5738 5738 5738 5738 5738 5738 5738 5738 5738 5738 5737 5737 5737 5737 5737 5738 5738 5738 5739 5739 5740 5740 5740 5741 5741 5741 5741 5741 5741 5741 5741 5741 5741 5741 5742 5742 5742 5742 5742 5742 5742 5742 5743 5743 5743 5742 5742 5743 5742 5742 5742
5726 5726 5726 5726 5726 5726 5726 5727 5728 5728 5729 5730 5730 5731 5731 5732 5732 5731 5731 5731 5731 5730 5730 5730 5731 5731 5732 5732 5732 5732 5733 5734 5735 5735 5735 5736 5736 5736 5735 5735 5736 5736 5736 5736 5736 5736 5736 5736 5736 5736 5736 5737 5737 5737 5737 5738 5738 5738 5739 5739 5739 5739 5739 5739 5739 5739 5739 5739 5739 5739 5740 5739 5739 5740 5739 5739 5740 5740 5740 5740 5740 5740 5740 5740 5740
5723 5724 5724 5723 5723 5723 5723 5724 5725 5726 5726 5727 5728 5728 5728 5729 5729 5729 5729 5729 5729 5729 5728 5728 5728 5728 5729 5729 5729 5729 5730 5731 5732 5732 5733 5733 5733 5734 5734 5733 5733 5733 5733 5734 5734 5734 5734 5734 5734 5734 5734 5734 5735 5735 5735 5735 5735 5736 5736 5736 5736 5737 5737 5737 5736 5736 5736 5737 5737 5737 5737 5737 5737 5737 5737 5737 5737 5737 5737 5737 5737 5737 5737 5737 5736
5718 5719 5719 5719 5718 5719 5720 5721 5722 5723 5724 5724 5725 5725 5724 5725 5725 5725 5726 5727 5727 5726 5726 5726 5726 5726 5726 5726 5726 5726 5726 5727 5728 5729 5729 5730 5730 5731 5731 5731 5731 5731 5731 5731 5732 5732 5732 5731 5731 5732 5732 5732 5732 5732 5732 5732 5733 5733 5733 5734 5734 5734 5734 5734 5734 5734 5734 5733 5733 5734 5734 5734 5734 5734 5735 5735 5734 5734 5734 5734 5734 5734 5734 5733 5733
5712 5712 5713 5714 5714 5715 5716 5717 5718 5719 5721 5722 5722 5722 5721 5721 5722 5722 5723 5723 5723 5723 5723 5724 5724 5723 5723 5724 5724 5724 5724 5724 5724 5725 5726 5726 5727 5728 5728 5728 5729 5729 5728 5729 5729 5729 5729 5729 5729 5729 5729 5729 5729 5729 5729 5729 5730 5730 5730 5730 5731 5731 5731 5731 5731 5731 5731 5731 5730 5730 5730 5731 5730 5730 5731 5731 5731 5731 5731 5731 5731 5731 5730 5730 5729
5708 5708 5709 5711 5711 5712 5713 5714 5715 5716 5717 5718 5719 5719 5718 5718 5719 5719 5719 5719 5720 5719 5720 5720 5720 5720 5720 5720 5721 5721 5721 5721 5722 5722 5722 5723 5723 5724 5725 5725 5725 5725 5726 5726 5726 5726 5726 5726 5726 5725 5725 5725 5725 5726 5726 5726 5727 5727 5727 5727 5728 5728 5728 5728 5728 5728 5728 5728 5728 5727 5727 5727 5727 5727 5727 5727 5728 5728 5728 5727 5727 5727 5727 5726 5725
5705 5706 5706 5707 5708 5709 5710 5711 5711 5712 5713 5713 5714 5715 5714 5714 5715 5716 5716 5716 5716 5716 5716 5716 5717 5717 5717 5717 5718 5718 5718 5719 5719 5719 5719 5719 5719 5720 5721 5721 5721 5721 5722 5722 5722 5722 5722 5722 5722 5722 5722 5722 5722 5722 5722 5722 5723 5723 5724 5724 5724 5724 5724 5725 5725 5725 5725 5725 5725 5725 5724 5723 5723 5723 5723 5723 5723 5724 5724 5724 5723 5722 5722 5722 5722
5702 5702 5702 5703 5704 5704 5705 5707 5707 5708 5709 5709 5709 5709 5709 5710 5710 5711 5712 5712 5713 5713 5713 5713 5713 5713 5713 5714 5715 5716 5716 5716 5716 5716 5716 5716 5717 5717 5718 5718 5718 5718 5718 5718 5719 5719 5719 5719 5718 5718 5719 5718 5718 5718 5718 5719 5719 5719 5720 5720 5720 5720 5720 5721 5721 5721 5721 5721 5721 5721 5721 5720 5720 5720 5720 5719 5719 5719 5720 5720 5720 5718 5717 5717 5717
5697 5698 5698 5699 5699 5700 5701 5701 5702 5703 5704 5704 5705 5705 5705 5705 5706 5707 5707 5708 5708 5709 5709 5709 5708 5708 5709 5710 5711 5712 5713 5713 5713 5713 5713 5714 5714 5714 5715 5715 5715 5715 5715 5715 5715 5715 5716 5716 5715 5714 5714 5714 5714 5714 5714 5714 5715 5715 5715 5715 5716 5716 5716 5716 5716 5716 5716 5717 5717 5717 5716 5716 5715 5715 5715 5715 5714 5715 5714 5714 5715 5715 5713 5712 5711
5693 5693 5694 5694 5695 5695 5696 5696 5697 5697 5698 5699 5699 5700 5700 5700 5701 5701 5702 5703 5703 5704 5704 5704 5704 5704 5705 5706 5707 5708 5708 5708 5708 5708 5709 5710 5710 5711 5711 5711 5711 5711 5711 5711 5711 5711 5711 5711 5711 5710 5709 5710 5710 5710 5710 5710 5710 5710 5710 5710 5710 5710 5710 5710 5710 5710 5711 5711 5711 5711 5711 5711 5710 5710 5710 5709 5709 5709 5709 5708 5709 5709 5709 5709 5707
5690 5690 5690 5690 5691 5691 5691 5692 5692 5692 5693 5693 5693 5694 5694 5694 5695 5695 5696 5697 5698 5699 5699 5699 5699 5699 5700 5701 5702 5702 5702 5703 5703 5703 5703 5704 5705 5705 5706 5706 5706 5706 5706 5706 5706 5707 5707 5706 5706 5705 5704 5704 5704 5704 5705 5705 5705 5705 5705 5704 5704 5704 5705 5704 5704 5704 5705 5705 5705 5705 5705 5705 5705 5704 5703 5703 5703 5703 5702 5702 5702 5702 5702 5703 5703
5685 5686 5686 5686 5687 5687 5687 5688 5688 5688 5688 5688 5688 5688 5688 5688 5689 5690 5690 5691 5692 5693 5694 5694 5694 5694 5694 5695 5695 5696 5696 5697 5697 5698 5698 5698 5699 5699 5699 5700 5700 5700 5700 5701 5701 5701 5701 5701 5701 5700 5699 5699 5699 5699 5699 5700 5699 5699 5699 5697 5697 5698 5698 5698 5698 5698 5698 5699 5699 5698 5698 5699 5699 5698 5697 5697 5697 5696 5695 5695 5695 5695 5695 5696 5696
5680 5680 5680 5681 5682 5682 5683 5683 5683 5684 5684 5683 5683 5683 5683 5683 5683 5684 5684 5685 5686 5687 5687 5688 5688 5688 5688 5689 5689 5689 5689 5690 5690 5691 5691 5691 5692 5692 5693 5693 5694 5694 5694 5694 5695 5695 5695 5695 5695 5695 5694 5693 5693 5693 5694 5694 5693 5693 5692 5691 5690 5691 5691 5691 5691 5691 5691 5691 5691 5691 5690 5691 5691 5690 5689 5689 5689 5688 5688 5687 5687 5687 5688 5687 5688
5674 5675 5675 5675 5676 5676 5677 5677 5678 5678 5678 5678 5678 5678 5678 5678 5678 5678 5678 5679 5679 5680 5680 5680 5681 5681 5681 5682 5682 5682 5682 5683 5683 5684 5684 5685 5685 5685 5686 5686 5687 5687 5687 5687 5688 5688 5688 5688 5688 5688 5687 5687 5688 5688 5687 5687 5686 5686 5685 5685 5684 5684 5683 5683 5683 5684 5683 5683 5683 5683 5682 5682 5682 5682 5681 5680 5680 5680 5680 5679 5679 5678 5678 5678 5679
5668 5669 5669 5669 5670 5670 5671 5671 5672 5672 5672 5672 5673 5673 5673 5672 5672 5672 5672 5673 5673 5674 5674 5674 5674 5674 5674 5674 5675 5674 5674 5675 5676 5676 5677 5678 5679 5679 5679 5680 5680 5680 5680 5681 5681 5681 5681 5681 5681 5681 5681 5681 5681 5681 5680 5680 5679 5679 5679 5678 5677 5676 5676 5676 5676 5676 5675 5675 5675 5675 5674 5674 5673 5673 5672 5671 5671 5671 5670 5670 5670 5670 5670 5670 5670
5661 5662 5663 5663 5664 5664 5664 5665 5665 5666 5666 5666 5666 5666 5666 5666 5666 5666 5666 5666 5666 5667 5667 5667 5667 5668 5668 5669 5669 5668 5668 5668 5668 5668 5669 5670 5671 5672 5672 5673 5673 5673 5673 5674 5674 5674 5674 5674 5674 5674 5674 5674 5674 5674 5674 5673 5673 5672 5672 5671 5670 5670 5669 5669 5669 5668 5667 5666 5666 5666 5665 5665 5664 5664 5663 5662 5662 5661 5661 5661 5660 5660 5660 5662 5662
5654 5655 5656 5657 5658 5658 5658 5658 5659 5659 5660 5660 5660 5660 5660 5660 5660 5660 5660 5660 5660 5660 5660 5660 5660 5661 5662 5662 5662 5663 5662 5662 5662 5662 5662 5662 5663 5664 5664 5664 5665 5665 5665 5666 5667 5667 5667 5667 5667 5667 5667 5667 5666 5666 5666 5666 5665 5665 5664 5664 5664 5663 5662 5661 5661 5660 5659 5659 5658 5657 5657 5656 5656 5655 5654 5653 5653 5652 5652 5652 5650 5649 5650 5652 5652
5647 5648 5649 5650 5651 5652 5652 5652 5652 5653 5653 5653 5654 5654 5653 5653 5653 5653 5653 5653 5653 5653 5653 5653 5653 5654 5654 5655 5655 5656 5656 5656 5656 5656 5656 5656 5656 5656 5656 5656 5657 5657 5657 5659 5659 5659 5659 5660 5660 5660 5659 5659 5659 5658 5658 5658 5658 5657 5657 5657 5656 5655 5654 5653 5653 5652 5651 5651 5650 5649 5648 5648 5647 5646 5645 5644 5643 5643 5643 5642 5641 5641 5641 5641 5641
5640 5641 5642 5643 5644 5644 5645 5645 5645 5646 5646 5646 5646 5646 5646 5646 5647 5647 5647 5647 5647 5647 5647 5647 5647 5647 5647 5648 5648 5648 5649 5649 5649 5649 5649 5650 5649 5649 5649 5649 5649 5650 5650 5651 5652 5652 5652 5652 5652 5652 5651 5651 5651 5651 5650 5650 5650 5650 5649 5649 5648 5647 5646 5646 5645 5644 5643 5642 5642 5641 5640 5639 5638 5637 5636 5635 5634 5633 5633 5633 5632 5631 5631 5631 5631
5634 5634 5635 5635 5636 5636 5637 5637 5638 5638 5638 5638 5638 5638 5639 5639 5640 5641 5641 5641 5640 5640 5640 5640 5640 5640 5641 5641 5641 5641 5642 5642 5642 5642 5643 5643 5643 5643 5643 5643 5643 5643 5644 5644 5644 5644 5644 5644 5644 5643 5643 5643 5643 5643 5643 5643 5643 5642 5642 5641 5640 5639 5639 5638 5637 5636 5636 5635 5634 5633 5632 5630 5629 5628 5627 5626 5625 5624 5623 5623 5622 5622 5622 5622 5621
5627 5627 5627 5628 5628 5629 5629 5629 5630 5630 5630 5630 5631 5631 5631 5632 5633 5633 5634 5634 5634 5634 5634 5634 5634 5634 5634 5634 5634 5635 5635 5635 5635 5635 5635 5636 5636 5637 5637 5637 5637 5637 5637 5638 5638 5637 5637 5636 5636 5636 5636 5636 5636 5636 5636 5636 5635 5634 5634 5633 5632 5632 5631 5631 5630 5629 5628 5627 5626 5625 5624 5622 5621 5620 5619 5617 5616 5615 5614 5613 5612 5611 5611 5611 5611
5619 5620 5620 5620 5621 5622 5622 5622 5622 5622 5623 5623 5624 5624 5625 5625 5626 5626 5626 5626 5626 5627 5627 5627 5627 5628 5628 5628 5628 5628 5628 5629 5629 5629 5629 5629 5629 5630 5630 5630 5631 5631 5631 5631 5631 5631 5630 5630 5629 5629 5629 5629 5629 5629 5629 5628 5628 5627 5626 5625 5625 5624 5624 5623 5622 5621 5620 5619 5618 5617 5616 5614 5613 5611 5610 5609 5608 5606 5605 5604 5602 5601 5601 5600 5600
5610 5611 5612 5613 5613 5613 5613 5613 5614 5614 5615 5616 5617 5618 5618 5618 5619 5619 5619 5619 5619 5619 5620 5620 5621 5621 5621 5622 5622 5622 5623 5623 5623 5623 5623 5623 5623 5623 5623 5623 5623 5623 5623 5624 5624 5624 5624 5624 5624 5623 5623 5623 5623 5622 5622 5621 5621 5620 5619 5618 5618 5617 5616 5615 5615 5614 5613 5611 5610 5609 5608 5606 5605 5604 5602 5601 5599 5598 5597 5595 5593 5592 5591 5590 5589
5602 5603 5604 5604 5605 5605 5605 5605 5606 5607 5608 5609 5610 5610 5611 5611 5611 5612 5612 5612 5612 5613 5613 5614 5614 5614 5615 5615 5615 5616 5616 5617 5617 5617 5617 5617 5617 5618 5617 5617 5617 5616 5617 5617 5618 5618 5618 5618 5618 5617 5617 5616 5616 5616 5615 5615 5614 5613 5612 5612 5611 5610 5609 5608 5607 5606 5605 5604 5603 5602 5601 5599 5598 5596 5595 5593 5591 5590 5588 5586 5585 5583 5582 5581 5579
5595 5595 5595 5596 5596 5597 5597 5598 5599 5600 5600 5601 5602 5603 5603 5604 5604 5604 5605 5605 5606 5606 5607 5607 5608 5608 5608 5608 5609 5609 5610 5610 5611 5611 5611 5611 5611 5611 5611 5611 5611 5611 5611 5612 5612 5612 5612 5611 5611 5611 5611 5610 5610 5609 5609 5608 5608 5607 5606 5605 5604 5603 5602 5602 5601 5600 5599 5598 5597 5595 5594 5592 5591 5589 5587 5585 5584 5582 5580 5578 5577 5575 5573 5572 5571
5587 5588 5588 5588 5588 5589 5590 5590 5591 5592 5592 5593 5594 5595 5596 5597 5597 5598 5598 5599 5599 5599 5600 5600 5601 5601 5601 5602 5602 5603 5603 5604 5604 5604 5605 5605 5605 5605 5605 5605 5605 5606 5606 5606 5606 5606 5606 5606 5605 5605 5605 5604 5604 5603 5603 5602 5601 5600 5600 5599 5598 5597 5596 5595 5595 5594 5593 5591 5590 5589 5587 5586 5584 5582 5580 5578 5576 5573 5571 5570 5569 5567 5564 5562 5562
5579 5580 5580 5580 5581 5581 5582 5582 5583 5583 5584 5585 5586 5588 5589 5590 5591 5591 5592 5592 5592 5593 5593 5594 5594 5594 5594 5595 5596 5596 5597 5597 5598 5598 5598 5598 5599 5599 5599 5600 5600 5600 5600 5600 5601 5601 5601 5600 5600 5600 5600 5599 5598 5598 5597 5596 5596 5595 5594 5593 5592 5591 5591 5590 5589 5588 5587 5586 5584 5583 5581 5579 5577 5574 5572 5569 5567 5564 5562 5560 5559 5557 5554 5553 5552
5569 5570 5571 5572 5573 5574 5574 5574 5575 5576 5577 5578 5579 5581 5582 5583 5584 5584 5585 5585 5585 5586 5587 5587 5587 5588 5588 5589 5589 5590 5590 5591 5591 5591 5592 5592 5593 5593 5594 5594 5595 5595 5595 5595 5595 5595 5595 5595 5595 5595 5595 5594 5593 5593 5592 5591 5590 5589 5588 5588 5587 5586 5586 5585 5584 5583 5582 5580 5579 5577 5574 5572 5568 5565 5562 5560 5557 5554 5551 5549 5548 5546 5544 5542 5541
5560 5561 5562 5564 5565 5566 5567 5567 5568 5569 5570 5571 5572 5573 5575 5576 5577 5577 5578 5578 5579 5579 5580 5580 5581 5581 5582 5582 5583 5583 5584 5584 5584 5585 5586 5587 5587 5588 5588 5589 5589 5590 5590 5590 5590 5590 5591 5591 5590 5590 5589 5589 5588 5588 5587 5586 5585 5584 5584 5583 5583 5583 5582 5581 5580 5578 5576 5574 5572 5569 5566 5563 5559 5555 5552 5549 5546 5543 5540 5538 5537 5535 5533 5532 5531
5552 5553 5554 5556 5557 5558 5560 5561 5562 5563 5564 5565 5565 5566 5568 5569 5569 5570 5571 5572 5572 5572 5573 5574 5574 5575 5576 5576 5577 5577 5578 5578 5579 5580 5581 5581 5582 5582 5583 5583 5584 5584 5585 5585 5585 5586 5586 5586 5585 5585 5585 5584 5583 5583 5582 5582 5581 5581 5581 5580 5580 5579 5578 5576 5575 5573 5571 5568 5565 5562 5557 5553 5550 5546 5542 5539 5536 5533 5531 5529 5527 5526 5524 5523 5522
5545 5545 5546 5547 5549 5550 5552 5553 5555 5556 5556 5557 5559 5560 5561 5562 5562 5563 5564 5565 5565 5566 5566 5567 5568 5569 5569 5570 5570 5571 5572 5572 5573 5574 5575 5576 5576 5577 5577 5578 5579 5579 5580 5580 5581 5581 5581 5581 5581 5580 5580 5579 5579 5579 5578 5578 5578 5578 5578 5577 5576 5575 5574 5572 5570 5567 5565 5562 5558 5553 5548 5544 5540 5536 5533 5530 5528 5525 5523 5521 5520 5519 5518 5517 5516
5537 5538 5539 5540 5541 5543 5544 5546 5547 5548 5549 5550 5552 5553 5554 5555 5556 5556 5557 5558 5559 5559 5560 5560 5561 5562 5563 5564 5565 5565 5566 5567 5567 5568 5569 5570 5571 5571 5572 5573 5574 5574 5575 5575 5575 5576 5576 5576 5576 5576 5576 5576 5576 5576 5576 5576 5576 5576 5575 5574 5573 5571 5569 5567 5564 5562 5558 5554 5549 5544 5539 5535 5531 5528 5526 5523 5521 5519 5518 5516 5515 5514 5513 5512 5511
5529 5531 5532 5533 5535 5536 5537 5539 5540 5541 5542 5543 5545 5546 5547 5548 5549 5550 5550 5551 5552 5553 5553 5554 5555 5556 5557 5558 5559 5559 5560 5561 5562 5562 5563 5564 5565 5566 5567 5568 5568 5569 5570 5570 5570 5571 5571 5572 5572 5572 5572 5573 5573 5573 5573 5574 5573 5573 5572 5570 5569 5567 5564 5562 5559 5555 5551 5545 5540 5535 5530 5527 5524 5522 5520 5518 5516 5515 5514 5512 5511 5509 5508 5507 5506
5521 5523 5525 5526 5528 5529 5530 5531 5532 5534 5535 5537 5538 5539 5540 5541 5542 5543 5544 5544 5545 5546 5547 5548 5549 5550 5551 5552 5553 5554 5555 5556 5556 5557 5558 5559 5560 5560 5562 5563 5563 5564 5565 5565 5566 5567 5567 5568 5568 5569 5570 5570 5571 5571 5571 5571 5570 5569 5568 5566 5564 5562 5560 5556 5553 5548 5543 5537 5531 5527 5524 5521 5519 5518 5516 5514 5512 5511 5510 5508 5507 5505 5504 5503 5501
5514 5516 5518 5520 5521 5522 5523 5524 5526 5527 5529 5530 5532 5533 5533 5534 5535 5536 5537 5538 5539 5540 5541 5542 5543 5544 5545 5546 5547 5549 5549 5550 5551 5552 5553 5554 5555 5555 5557 5558 5559 5560 5560 5561 5562 5563 5564 5565 5566 5566 5567 5568 5568 5569 5568 5568 5567 5566 5565 5563 5560 5558 5555 5551 5547 5541 5535 5530 5525 5522 5519 5517 5516 5514 5512 5511 5509 5508 5506 5504 5503 5501 5500 5499 5497
5507 5509 5511 5513 5514 5516 5517 5518 5519 5521 5523 5524 5525 5526 5527 5528 5529 5530 5531 5532 5533 5534 5535 5536 5538 5539 5540 5541 5543 5544 5545 5546 5547 5548 5549 5550 5550 5551 5553 5554 5555 5556 5557 5558 5559 5560 5561 5562 5563 5564 5565 5566 5566 5566 5566 5565 5564 5563 5561 5559 5556 5553 5550 5546 5541 5536 5529 5524 5521 5518 5516 5515 5513 5512 5510 5508 5506 5504 5502 5501 5499 5498 5496 5494 5492
5501 5502 5504 5506 5508 5509 5511 5512 5514 5515 5516 5518 5519 5520 5521 5522 5523 5524 5525 5526 5528 5529 5530 5531 5533 5534 5535 5537 5539 5540 5541 5542 5543 5544 5545 5546 5547 5548 5550 5551 5552 5553 5555 5556 5557 5558 5559 5560 5561 5562 5563 5563 5564 5564 5563 5562 5561 5559 5557 5554 5552 5549 5546 5541 5536 5531 5525 5521 5518 5516 5514 5513 5511 5509 5507 5505 5503 5501 5500 5498 5496 5494 5492 5490 5488
5496 5497 5499 5501 5502 5504 5505 5507 5508 5509 5511 5512 5513 5514 5515 5516 5517 5519 5520 5521 5523 5524 5526 5527 5528 5530 5532 5534 5536 5537 5538 5540 5541 5542 5543 5544 5545 5547 5548 5549 5550 5551 5552 5553 5554 5555 5556 5558 5559 5560 5560 5561 5561 5561 5560 5559 5558 5556 5553 5551 5548 5545 5542 5537 5531 5526 5521 5518 5516 5514 5512 5511 5509 5507 5505 5503 5501 5499 5497 5495 5493 5491 5489 5486 5484
5492 5493 5495 5496 5498 5499 5501 5502 5503 5504 5506 5507 5508 5509 5510 5511 5513 5514 5516 5517 5519 5520 5522 5524 5525 5527 5529 5531 5533 5535 5536 5538 5539 5540 5542 5543 5544 5545 5546 5547 5548 5549 5550 5551 5552 5553 5554 5555 5556 5557 5558 5558 5559 5558 5557 5556 5555 5553 5550 5548 5545 5542 5538 5533 5527 5522 5519 5516 5514 5512 5510 5508 5506 5504 5503 5501 5499 5497 5495 5492 5490 5488 5485 5483 5480
5488 5490 5491 5493 5494 5496 5497 5498 5499 5500 5502 5503 5504 5505 5507 5509 5510 5512 5513 5515 5517 5518 5520 5522 5524 5526 5528 5529 5531 5533 5535 5536 5538 5539 5540 5541 5542 5543 5544 5545 5546 5547 5548 5549 5550 5551 5552 5553 5554 5555 5556 5556 5556 5555 5554 5553 5552 5549 5547 5545 5542 5539 5535 5530 5524 5520 5517 5515 5513 5510 5508 5506 5505 5503 5502 5500 5498 5495 5493 5490 5487 5485 5482 5480 5477
5486 5488 5489 5491 5492 5493 5494 5495 5496 5497 5499 5500 5502 5504 5506 5507 5509 5511 5512 5514 5516 5517 5519 5521 5523 5525 5527 5528 5530 5532 5534 5535 5536 5537 5539 5540 5540 5541 5542 5543 5544 5545 5546 5547 5548 5549 5550 5551 5552 5553 5553 5553 5553 5553 5552 5550 5549 5547 5544 5542 5539 5536 5532 5527 5521 5517 5515 5513 5511 5509 5507 5505 5504 5503 5501 5498 5495 5493 5491 5488 5485 5483 5480 5477 5474
5486 5487 5489 5490 5491 5492 5493 5494 5495 5496 5498 5500 5501 5503 5505 5507 5509 5510 5511 5513 5515 5516 5518 5520 5522 5524 5525 5527 5529 5530 5532 5533 5534 5536 5537 5537 5538 5539 5540 5541 5542 5543 5544 5545 5546 5547 5548 5549 5550 5550 5550 5551 5550 5550 5549 5548 5546 5544 5542 5539 5536 5533 5529 5524 5519 5515 5513 5511 5509 5507 5506 5505 5503 5501 5499 5496 5494 5492 5489 5487 5484 5481 5478 5476 5473
5486 5487 5489 5490 5491 5491 5492 5493 5494 5495 5497 5499 5501 5503 5505 5507 5508 5510 5511 5513 5514 5516 5518 5519 5521 5522 5524 5525 5527 5528 5530 5531 5532 5533 5534 5535 5536 5537 5539 5540 5540 5541 5542 5543 5544 5545 5546 5547 5547 5548 5548 5548 5548 5547 5546 5545 5544 5542 5540 5537 5534 5531 5527 5523 5518 5514 5511 5510 5508 5506 5505 5504 5502 5500 5498 5495 5493 5491 5489 5486 5483 5480 5478 5475 5472
5487 5488 5489 5489 5490 5491 5491 5492 5494 5495 5497 5499 5501 5504 5505 5507 5508 5510 5511 5512 5514 5515 5517 5518 5519 5521 5522 5524 5525 5527 5528 5529 5530 5531 5532 5534 5535 5536 5537 5538 5539 5540 5541 5541 5542 5543 5544 5544 5545 5545 5545 5545 5545 5544 5543 5542 5541 5539 5537 5535 5532 5529 5526 5522 5518 5513 5510 5508 5507 5505 5504 5503 5501 5499 5497 5495 5492 5490 5488 5486 5483 5480 5477 5474 5471
5487 5488 5489 5489 5490 5490 5492 5493 5494 5496 5498 5500 5502 5503 5504 5506 5507 5508 5510 5511 5512 5514 5515 5517 5518 5520 5521 5523 5524 5525 5526 5527 5528 5530 5531 5532 5533 5534 5535 5536 5537 5538 5539 5540 5540 5541 5542 5542 5542 5543 5543 5542 5542 5541 5540 5539 5538 5536 5534 5532 5530 5527 5524 5521 5517 5513 5510 5507 5506 5504 5503 5502 5500 5498 5496 5494 5492 5489 5487 5485 5483 5480 5477 5474 5471
5488 5488 5489 5490 5490 5491 5493 5494 5495 5496 5498 5499 5501 5502 5503 5504 5506 5507 5508 5510 5511 5512 5514 5515 5517 5518 5520 5521 5522 5523 5525 5526 5527 5529 5530 5531 5532 5533 5534 5535 5535 5536 5537 5538 5538 5539 5539 5540 5540 5540 5540 5540 5539 5538 5538 5536 5535 5533 5532 5530 5528 5525 5522 5519 5516 5512 5509 5506 5504 5503 5502 5501 5499 5497 5495 5493 5491 5489 5487 5484 5482 5479 5477 5474 5471
5489 5489 5490 5490 5491 5492 5493 5494 5495 5496 5498 5499 5500 5501 5503 5504 5505 5506 5507 5508 5510 5511 5513 5514 5515 5517 5518 5520 5521 5523 5524 5525 5527 5528 5529 5530 5531 5532 5532 5533 5533 5534 5535 5535 5536 5537 5537 5537 5537 5537 5537 5537 5536 5536 5535 5534 5532 5531 5529 5528 5526 5523 5521 5518 5515 5512 5508 5505 5503 5501 5500 5499 5498 5496 5494 5492 5490 5488 5486 5484 5482 5479 5477 5474 5471
5490 5491 5491 5492 5492 5493 5494 5495 5496 5497 5498 5499 5500 5501 5502 5503 5504 5505 5506 5508 5509 5510 5512 5513 5515 5516 5518 5519 5520 5522 5523 5525 5526 5527 5528 5528 5529 5530 5530 5531 5531 5532 5533 5533 5534 5534 5534 5534 5534 5534 5534 5534 5534 5533 5532 5531 5530 5528 5527 5525 5524 5522 5519 5517 5514 5511 5507 5504 5502 5500 5498 5498 5497 5495 5493 5491 5490 5488 5486 5484 5482 5480 5477 5475 5472
5492 5493 5493 5494 5494 5495 5495 5496 5497 5498 5499 5500 5501 5502 5502 5503 5504 5505 5506 5508 5509 5510 5512 5513 5514 5516 5517 5519 5520 5521 5522 5523 5524 5525 5526 5527 5527 5528 5528 5529 5529 5530 5530 5531 5531 5531 5532 5532 5532 5532 5532 5531 5531 5530 5529 5528 5527 5526 5525 5523 5521 5520 5517 5515 5512 5509 5506 5503 5501 5498 5497 5496 5495 5494 5492 5491 5489 5488 5486 5484 5482 5480 5478 5476 5473
5494 5494 5495 5495 5496 5497 5497 5498 5499 5499 5500 5501 5502 5502 5503 5504 5505 5506 5507 5508 5509 5511 5512 5513 5514 5515 5517 5518 5519 5520 5521 5522 5523 5523 5524 5525 5525 5526 5526 5527 5527 5527 5528 5528 5529 5529 5529 5529 5529 5529 5529 5529 5528 5528 5527 5526 5525 5524 5522 5521 5519 5518 5516 5513 5511 5508 5505 5503 5500 5497 5495 5494 5493 5492 5491 5490 5489 5487 5486 5485 5483 5481 5479 5476 5474
5495 5496 5496 5497 5497 5498 5498 5499 5500 5501 5501 5502 5502 5503 5504 5505 5505 5506 5507 5508 5509 5510 5512 5513 5514 5515 5516 5517 5518 5519 5519 5520 5521 5522 5522 5523 5523 5523 5524 5524 5524 5525 5525 5525 5526 5526 5526 5526 5526 5526 5526 5526 5525 5525 5524 5523 5522 5521 5520 5519 5517 5515 5514 5511 5509 5507 5505 5502 5499 5497 5494 5492 5491 5490 5489 5488 5487 5487 5485 5484 5483 5481 5479 5477 5475